This is the latest recevied weather packets stored in our database for station/object SR8NGO-1. If no packets are shown the sender has not sent any weather packets the latest 10 day(s).
| Time | Temp. | Humidity | Pressure | Rain* | Wind** | Luminosity | Snow |
|---|---|---|---|---|---|---|---|
| 1777529319 | 10° C | 67% | 1018.3 hPa | 137.92 mm | - | - | - |
| 1777529079 | 10° C | 67% | 1018.3 hPa | 137.92 mm | - | - | - |
| 1777528839 | 11.11° C | 68% | 1018.3 hPa | 137.92 mm | - | - | - |
| 1777528599 | 10° C | 71% | 1018.2 hPa | 137.92 mm | - | - | - |
| 1777528359 | 11.11° C | 74% | 1018.2 hPa | 137.92 mm | - | - | - |
| 1777528119 | 10° C | 75% | 1018.2 hPa | 137.92 mm | - | - | - |
| 1777527879 | 11.11° C | 78% | 1018.2 hPa | 137.92 mm | - | - | - |
| 1777527639 | 8.89° C | 81% | 1018.2 hPa | 137.92 mm | - | - | - |
| 1777527399 | 8.89° C | 82% | 1018.3 hPa | 137.92 mm | - | - | - |
| 1777527159 | 7.78° C | 83% | 1018.2 hPa | 137.92 mm | - | - | - |
| 1777526919 | 8.89° C | 85% | 1018.2 hPa | 137.92 mm | - | - | - |
| 1777526679 | 7.78° C | 86% | 1018.2 hPa | 137.92 mm | - | - | - |
| 1777526199 | 7.22° C | 85% | 1018.2 hPa | 137.92 mm | - | - | - |
| 1777525959 | 7.78° C | 85% | 1018.2 hPa | 136.91 mm | - | - | - |
| 1777525719 | 7.22° C | 85% | 1018.2 hPa | 136.91 mm | - | - | - |
| 1777525479 | 6.11° C | 84% | 1018.1 hPa | 136.91 mm | - | - | - |
| 1777525239 | 6.11° C | 83% | 1018.1 hPa | 136.91 mm | - | - | - |
| 1777524999 | 6.11° C | 83% | 1018.1 hPa | 135.89 mm | - | - | - |
| 1777524759 | 6.11° C | 83% | 1018.1 hPa | 135.89 mm | - | - | - |
| 1777524519 | 3.89° C | 82% | 1018 hPa | 134.11 mm | - | - | - |
| 1777524279 | 3.89° C | 81% | 1018 hPa | 134.11 mm | - | - | - |
| 1777524039 | 3.89° C | 81% | 1018 hPa | 130.05 mm | - | - | - |
| 1777523799 | 1.11° C | 81% | 1018 hPa | 125.98 mm | - | - | - |
| 1777523559 | 1.11° C | 81% | 1018 hPa | 125.98 mm | - | - | - |
| 1777523319 | 0° C | 80% | 1017.9 hPa | 125.98 mm | - | - | - |
* Rain latest hour (hover to see other rain measurements)
** Current wind speed in m/s (hover to see current wind gust speed)